Time,TemperatureF,DewpointF,PressureIn,WindDirection,WindDirectionDegrees,WindSpeedMPH,WindSpeedGustMPH,Humidity,HourlyPrecipIn,Conditions,Clouds,dailyrainin,SolarRadiationWatts/m^2,SoftwareType,DateUTC
2013-02-17 00:21:00,17.0,12.0,-100.00,East,83,0.0,3.0,82,0.00,,,0.00,0.000000,,2013-02-17 09:21:00,
2013-02-17 00:31:00,17.0,12.0,-100.00,East,83,0.0,3.0,82,0.00,,,0.00,0.000000,,2013-02-17 09:31:00,
2013-02-17 00:41:00,17.0,12.0,-100.00,East,83,0.0,3.0,82,0.00,,,0.00,0.000000,,2013-02-17 09:41:00,
2013-02-17 00:51:00,17.0,12.0,-100.00,East,83,0.0,3.0,82,0.00,,,0.00,0.000000,,2013-02-17 09:51:00,
2013-02-17 01:21:00,17.0,12.0,-100.00,WSW,240,1.0,3.0,81,0.00,,,0.00,0.000000,,2013-02-17 10:21:00,
2013-02-17 01:31:00,17.0,12.0,-100.00,WSW,240,1.0,3.0,81,0.00,,,0.00,0.000000,,2013-02-17 10:31:00,
2013-02-17 01:41:00,17.0,12.0,-100.00,WSW,240,1.0,3.0,81,0.00,,,0.00,0.000000,,2013-02-17 10:41:00,
2013-02-17 01:51:00,17.0,12.0,-100.00,WSW,240,1.0,3.0,81,0.00,,,0.00,0.000000,,2013-02-17 10:51:00,
2013-02-17 02:21:00,19.0,12.0,-100.00,ESE,115,2.0,5.0,74,0.00,,,0.00,0.000000,,2013-02-17 11:21:00,
2013-02-17 02:32:00,19.0,12.0,-100.00,ESE,115,2.0,5.0,74,0.00,,,0.00,0.000000,,2013-02-17 11:32:00,
2013-02-17 02:41:00,19.0,12.0,-100.00,ESE,115,2.0,5.0,74,0.00,,,0.00,0.000000,,2013-02-17 11:41:00,
2013-02-17 02:52:00,19.0,12.0,-100.00,ESE,115,2.0,5.0,74,0.00,,,0.00,0.000000,,2013-02-17 11:52:00,
2013-02-17 03:22:00,20.0,12.0,-100.00,SW,219,1.0,5.0,71,0.00,,,0.00,0.000000,,2013-02-17 12:22:00,
2013-02-17 03:32:00,20.0,12.0,-100.00,SW,219,1.0,5.0,71,0.00,,,0.00,0.000000,,2013-02-17 12:32:00,
2013-02-17 03:42:00,20.0,12.0,-100.00,SW,219,1.0,5.0,71,0.00,,,0.00,0.000000,,2013-02-17 12:42:00,
2013-02-17 03:52:00,20.0,12.0,-100.00,SW,219,1.0,5.0,71,0.00,,,0.00,0.000000,,2013-02-17 12:52:00,
2013-02-17 04:21:00,19.0,14.0,-100.00,SSE,150,1.0,3.0,81,0.00,,,0.00,0.000000,,2013-02-17 13:21:00,
2013-02-17 04:32:00,19.0,14.0,-100.00,SSE,150,1.0,3.0,81,0.00,,,0.00,0.000000,,2013-02-17 13:32:00,
2013-02-17 04:41:00,19.0,14.0,-100.00,SSE,150,1.0,3.0,81,0.00,,,0.00,0.000000,,2013-02-17 13:41:00,
2013-02-17 04:51:00,19.0,14.0,-100.00,SSE,150,1.0,3.0,81,0.00,,,0.00,0.000000,,2013-02-17 13:51:00,
2013-02-17 05:21:00,19.0,15.0,-100.00,WNW,293,0.0,2.0,83,0.00,,,0.00,0.000000,,2013-02-17 14:21:00,
2013-02-17 05:32:00,19.0,15.0,-100.00,WNW,293,0.0,2.0,83,0.00,,,0.00,0.000000,,2013-02-17 14:32:00,
2013-02-17 05:42:00,19.0,15.0,-100.00,WNW,293,0.0,2.0,83,0.00,,,0.00,0.000000,,2013-02-17 14:42:00,
2013-02-17 05:52:00,19.0,15.0,-100.00,WNW,293,0.0,2.0,83,0.00,,,0.00,0.000000,,2013-02-17 14:52:00,
2013-02-17 06:21:00,18.0,14.0,-100.00,ESE,118,1.0,2.0,85,0.00,,,0.00,0.000000,,2013-02-17 15:21:00,
2013-02-17 06:31:00,18.0,14.0,-100.00,ESE,118,1.0,2.0,85,0.00,,,0.00,0.000000,,2013-02-17 15:31:00,
2013-02-17 06:41:00,18.0,14.0,-100.00,ESE,118,1.0,2.0,85,0.00,,,0.00,0.000000,,2013-02-17 15:41:00,
2013-02-17 06:52:00,18.0,14.0,-100.00,ESE,118,1.0,2.0,85,0.00,,,0.00,0.000000,,2013-02-17 15:52:00,
2013-02-17 07:21:00,18.0,15.0,-100.00,ESE,115,0.0,3.0,86,0.00,,,0.00,0.000000,,2013-02-17 16:21:00,
2013-02-17 07:31:00,18.0,15.0,-100.00,ESE,115,0.0,3.0,86,0.00,,,0.00,0.000000,,2013-02-17 16:31:00,
2013-02-17 07:41:00,18.0,15.0,-100.00,ESE,115,0.0,3.0,86,0.00,,,0.00,0.000000,,2013-02-17 16:41:00,
2013-02-17 07:51:00,18.0,15.0,-100.00,ESE,115,0.0,3.0,86,0.00,,,0.00,0.000000,,2013-02-17 16:51:00,
2013-02-17 08:21:00,19.0,16.0,-100.00,SE,124,0.0,4.0,87,0.00,,,0.00,0.000000,,2013-02-17 17:21:00,
2013-02-17 08:32:00,19.0,16.0,-100.00,SE,124,0.0,4.0,87,0.00,,,0.00,0.000000,,2013-02-17 17:32:00,
2013-02-17 08:41:00,19.0,16.0,-100.00,SE,124,0.0,4.0,87,0.00,,,0.00,0.000000,,2013-02-17 17:41:00,
2013-02-17 08:52:00,19.0,16.0,-100.00,SE,124,0.0,4.0,87,0.00,,,0.00,0.000000,,2013-02-17 17:52:00,
2013-02-17 09:21:00,17.0,14.0,-100.00,SE,144,0.0,2.0,87,0.00,,,0.00,6.000000,,2013-02-17 18:21:00,
2013-02-17 09:33:00,17.0,14.0,-100.00,SE,144,0.0,2.0,87,0.00,,,0.00,6.000000,,2013-02-17 18:33:00,
2013-02-17 09:42:00,17.0,14.0,-100.00,SE,144,0.0,2.0,87,0.00,,,0.00,6.000000,,2013-02-17 18:42:00,
2013-02-17 09:52:00,17.0,14.0,-100.00,SE,144,0.0,2.0,87,0.00,,,0.00,6.000000,,2013-02-17 18:52:00,
2013-02-17 10:21:00,21.0,17.0,-100.00,SE,130,1.0,4.0,83,0.00,,,0.00,35.000000,,2013-02-17 19:21:00,
2013-02-17 10:32:00,21.0,17.0,-100.00,SE,130,1.0,4.0,83,0.00,,,0.00,35.000000,,2013-02-17 19:32:00,
2013-02-17 10:41:00,21.0,17.0,-100.00,SE,130,1.0,4.0,83,0.00,,,0.00,35.000000,,2013-02-17 19:41:00,
2013-02-17 10:51:00,21.0,17.0,-100.00,SE,130,1.0,4.0,83,0.00,,,0.00,35.000000,,2013-02-17 19:51:00,
2013-02-17 11:21:00,25.0,19.0,-100.00,East,90,2.0,4.0,77,0.00,,,0.00,78.000000,,2013-02-17 20:21:00,
2013-02-17 11:32:00,25.0,19.0,-100.00,East,90,2.0,4.0,77,0.00,,,0.00,78.000000,,2013-02-17 20:32:00,
2013-02-17 11:42:00,25.0,19.0,-100.00,East,90,2.0,4.0,77,0.00,,,0.00,78.000000,,2013-02-17 20:42:00,
2013-02-17 11:52:00,25.0,19.0,-100.00,East,90,2.0,4.0,77,0.00,,,0.00,78.000000,,2013-02-17 20:52:00,
2013-02-17 12:21:00,26.0,19.0,-100.00,ESE,112,3.0,6.0,73,0.00,,,0.00,94.000000,,2013-02-17 21:21:00,
2013-02-17 12:31:00,26.0,19.0,-100.00,ESE,112,3.0,6.0,73,0.00,,,0.00,94.000000,,2013-02-17 21:31:00,
2013-02-17 12:41:00,26.0,19.0,-100.00,ESE,112,3.0,6.0,73,0.00,,,0.00,94.000000,,2013-02-17 21:41:00,
2013-02-17 12:52:00,26.0,19.0,-100.00,ESE,112,3.0,6.0,73,0.00,,,0.00,94.000000,,2013-02-17 21:52:00,
2013-02-17 13:21:00,27.0,19.0,-100.00,ESE,102,3.0,6.0,72,0.00,,,0.00,99.000000,,2013-02-17 22:21:00,
2013-02-17 13:32:00,27.0,19.0,-100.00,ESE,102,3.0,6.0,72,0.00,,,0.00,99.000000,,2013-02-17 22:32:00,
2013-02-17 13:41:00,27.0,19.0,-100.00,ESE,102,3.0,6.0,72,0.00,,,0.00,99.000000,,2013-02-17 22:41:00,
2013-02-17 13:52:00,27.0,19.0,-100.00,ESE,102,3.0,6.0,72,0.00,,,0.00,99.000000,,2013-02-17 22:52:00,
2013-02-17 14:21:00,29.0,20.0,-100.00,East,98,3.0,6.0,69,0.00,,,0.00,118.000000,,2013-02-17 23:21:00,
2013-02-17 14:31:00,29.0,20.0,-100.00,East,98,3.0,6.0,69,0.00,,,0.00,118.000000,,2013-02-17 23:31:00,
2013-02-17 14:41:00,29.0,20.0,-100.00,East,98,3.0,6.0,69,0.00,,,0.00,118.000000,,2013-02-17 23:41:00,
2013-02-17 14:52:00,29.0,20.0,-100.00,East,98,3.0,6.0,69,0.00,,,0.00,118.000000,,2013-02-17 23:52:00,
2013-02-17 15:22:00,30.0,21.0,-100.00,East,89,3.0,7.0,68,0.00,,,0.00,120.000000,,2013-02-18 00:22:00,
2013-02-17 15:31:00,30.0,21.0,-100.00,East,89,3.0,7.0,68,0.00,,,0.00,120.000000,,2013-02-18 00:31:00,
2013-02-17 15:41:00,30.0,21.0,-100.00,East,89,3.0,7.0,68,0.00,,,0.00,120.000000,,2013-02-18 00:41:00,
2013-02-17 15:52:00,30.0,21.0,-100.00,East,89,3.0,7.0,68,0.00,,,0.00,120.000000,,2013-02-18 00:52:00,
2013-02-17 16:21:00,29.0,19.0,-100.00,NE,35,1.0,7.0,67,0.00,,,0.00,69.000000,,2013-02-18 01:21:00,
2013-02-17 16:31:00,29.0,19.0,-100.00,NE,35,1.0,7.0,67,0.00,,,0.00,69.000000,,2013-02-18 01:31:00,
2013-02-17 16:41:00,29.0,19.0,-100.00,NE,35,1.0,7.0,67,0.00,,,0.00,69.000000,,2013-02-18 01:41:00,
2013-02-17 16:51:00,29.0,19.0,-100.00,NE,35,1.0,7.0,67,0.00,,,0.00,69.000000,,2013-02-18 01:51:00,
2013-02-17 17:21:00,29.0,20.0,-100.00,East,81,2.0,6.0,68,0.00,,,0.00,52.000000,,2013-02-18 02:21:00,
2013-02-17 17:32:00,29.0,20.0,-100.00,East,81,2.0,6.0,68,0.00,,,0.00,52.000000,,2013-02-18 02:32:00,
2013-02-17 17:41:00,29.0,20.0,-100.00,East,81,2.0,6.0,68,0.00,,,0.00,52.000000,,2013-02-18 02:41:00,
2013-02-17 17:52:00,29.0,20.0,-100.00,East,81,2.0,6.0,68,0.00,,,0.00,52.000000,,2013-02-18 02:52:00,
2013-02-17 18:21:00,26.0,19.0,-100.00,East,90,0.0,9.0,75,0.00,,,0.00,11.000000,,2013-02-18 03:21:00,
2013-02-17 18:31:00,26.0,19.0,-100.00,East,90,0.0,9.0,75,0.00,,,0.00,11.000000,,2013-02-18 03:31:00,
2013-02-17 18:42:00,26.0,19.0,-100.00,East,90,0.0,9.0,75,0.00,,,0.00,11.000000,,2013-02-18 03:42:00,
2013-02-17 18:51:00,26.0,19.0,-100.00,East,90,0.0,9.0,75,0.00,,,0.00,11.000000,,2013-02-18 03:51:00,
2013-02-17 19:21:00,25.0,19.0,-100.00,North,10,1.0,5.0,76,0.00,,,0.00,0.000000,,2013-02-18 04:21:00,
2013-02-17 19:32:00,25.0,19.0,-100.00,North,10,1.0,5.0,76,0.00,,,0.00,0.000000,,2013-02-18 04:32:00,
2013-02-17 19:41:00,25.0,19.0,-100.00,North,10,1.0,5.0,76,0.00,,,0.00,0.000000,,2013-02-18 04:41:00,
2013-02-17 19:51:00,25.0,19.0,-100.00,North,10,1.0,5.0,76,0.00,,,0.00,0.000000,,2013-02-18 04:51:00,
2013-02-17 20:21:00,25.0,19.0,-100.00,ENE,72,1.0,6.0,78,0.00,,,0.00,0.000000,,2013-02-18 05:21:00,
2013-02-17 20:31:00,25.0,19.0,-100.00,ENE,72,1.0,6.0,78,0.00,,,0.00,0.000000,,2013-02-18 05:31:00,
2013-02-17 20:41:00,25.0,19.0,-100.00,ENE,72,1.0,6.0,78,0.00,,,0.00,0.000000,,2013-02-18 05:41:00,
2013-02-17 20:51:00,25.0,19.0,-100.00,ENE,72,1.0,6.0,78,0.00,,,0.00,0.000000,,2013-02-18 05:51:00,
2013-02-17 21:21:00,27.0,18.0,-100.00,East,82,5.0,10.0,69,0.00,,,-99.99,0.000000,,2013-02-18 06:21:00,
2013-02-17 21:31:00,27.0,18.0,-100.00,East,82,5.0,10.0,69,0.00,,,-99.99,0.000000,,2013-02-18 06:31:00,
2013-02-17 21:41:00,27.0,18.0,-100.00,East,82,5.0,10.0,69,0.00,,,-99.99,0.000000,,2013-02-18 06:41:00,
2013-02-17 21:51:00,27.0,18.0,-100.00,East,82,5.0,10.0,69,0.00,,,-99.99,0.000000,,2013-02-18 06:51:00,
2013-02-17 22:21:00,26.0,19.0,-100.00,NNE,15,2.0,11.0,73,0.00,,,0.00,0.000000,,2013-02-18 07:21:00,
2013-02-17 22:31:00,26.0,19.0,-100.00,NNE,15,2.0,11.0,73,0.00,,,0.00,0.000000,,2013-02-18 07:31:00,
2013-02-17 22:42:00,26.0,19.0,-100.00,NNE,15,2.0,11.0,73,0.00,,,0.00,0.000000,,2013-02-18 07:42:00,
2013-02-17 22:51:00,26.0,19.0,-100.00,NNE,15,2.0,11.0,73,0.00,,,0.00,0.000000,,2013-02-18 07:51:00,
2013-02-17 23:21:00,26.0,19.0,-100.00,East,80,2.0,6.0,75,0.00,,,0.00,0.000000,,2013-02-18 08:21:00,
2013-02-17 23:32:00,26.0,19.0,-100.00,East,80,2.0,6.0,75,0.00,,,0.00,0.000000,,2013-02-18 08:32:00,
2013-02-17 23:42:00,26.0,19.0,-100.00,East,80,2.0,6.0,75,0.00,,,0.00,0.000000,,2013-02-18 08:42:00,
2013-02-17 23:52:00,26.0,19.0,-100.00,East,80,2.0,6.0,75,0.00,,,0.00,0.000000,,2013-02-18 08:52:00,